GFSFLT2_sfc_rhum_114.txt.gz
RH
98 99 99 99 98 96 94 95 95 82 79 79 77 74 70 66 63 66 68 68 67 66 68 69 77 78 80
99 100 99 98 97 95 89 87 96 85 79 77 78 73 70 63 61 66 66 69 68 67 69 72 82 84 84
100 99 100 99 98 92 88 82 82 85 79 77 77 75 71 61 63 65 65 66 67 69 70 76 84 86 88
99 100 99 100 99 99 99 92 86 72 82 79 76 75 69 61 70 68 69 67 67 68 70 78 85 87 87
100 99 100 99 98 99 98 99 94 85 79 80 80 78 74 71 72 72 66 66 68 70 69 79 84 88 88
98 98 98 98 99 98 98 99 99 93 85 80 74 78 73 81 69 71 64 66 69 69 69 77 84 87 88
96 95 96 96 96 99 99 99 98 96 86 90 74 78 76 72 76 70 65 66 70 70 69 74 79 87 88
94 90 90 94 92 93 95 96 88 86 85 97 85 81 80 93 81 72 67 68 66 70 72 73 73 83 85
95 94 93 93 93 96 99 98 98 88 81 79 87 86 87 91 94 77 72 64 64 72 72 71 71 77 81
98 96 92 92 89 90 95 100 97 96 85 84 86 94 95 91 94 95 91 70 67 68 70 74 74 83 85
98 99 98 99 98 98 94 97 99 100 88 87 95 98 96 98 99 97 93 88 82 79 73 71 73 79 91
98 96 95 97 99 99 98 95 90 97 84 89 95 95 98 99 96 98 98 98 96 93 95 80 73 75 72
96 94 94 98 99 98 98 97 98 96 92 90 93 97 97 96 97 97 98 98 97 98 98 97 96 95 91
96 97 98 98 98 98 98 98 98 99 98 95 92 93 96 94 94 97 97 98 99 99 99 99 92 83 82
99 98 98 98 98 98 98 98 98 99 100 97 92 90 93 93 94 95 97 98 99 99 96 98 94 88 78
99 98 98 97 97 98 98 98 97 97 98 98 98 93 91 84 77 95 95 97 99 99 98 95 95 92 78
99 98 98 98 97 97 97 96 97 97 98 97 97 92 90 84 92 75 94 98 98 99 99 97 96 94 87

GFSFLT2_sfc_rhum_117.txt.gz
RH
96 97 97 98 98 98 97 96 93 88 82 83 82 79 75 72 69 67 67 68 68 66 67 68 68 78 79
99 100 99 96 95 97 97 94 94 90 84 82 81 79 76 72 68 67 67 68 68 67 69 70 71 81 81
99 98 99 98 99 98 96 94 91 90 88 85 81 81 77 73 67 68 67 65 68 67 70 71 78 84 85
99 99 98 98 97 97 99 97 96 90 90 89 85 82 81 76 68 72 68 68 68 68 71 70 81 84 86
98 99 99 99 97 96 96 96 97 94 95 94 88 83 81 72 74 72 70 68 68 70 71 71 80 84 87
98 98 97 94 92 97 96 99 99 94 96 94 83 79 71 72 71 68 71 68 69 71 71 71 79 83 88
98 97 94 92 91 99 97 98 98 97 94 91 75 78 69 61 70 69 70 69 69 71 72 71 74 82 85
94 93 90 88 91 92 94 96 96 95 87 95 72 72 64 62 70 74 70 69 66 71 71 71 71 77 79
94 96 95 95 94 99 99 99 99 97 92 87 79 74 68 65 67 77 71 72 64 72 74 72 71 71 64
97 97 97 98 97 96 97 100 100 98 96 94 84 78 85 67 70 75 66 70 68 68 69 72 73 57 59
97 98 99 99 99 98 96 99 100 100 82 89 93 83 79 80 77 80 77 68 62 59 68 70 73 71 69
99 98 98 99 100 100 99 100 99 100 92 98 96 92 92 84 79 85 85 78 74 67 70 70 73 72 69
98 98 98 100 100 100 100 99 100 100 100 99 95 92 96 91 85 86 89 85 85 87 76 69 67 67 71
98 99 99 99 99 99 98 99 98 97 98 98 96 93 86 83 84 88 83 91 88 84 81 78 66 62 67
100 99 98 98 98 98 98 98 98 97 97 97 90 88 87 89 86 81 80 85 87 88 79 79 75 68 59
100 99 98 98 98 97 97 98 97 96 96 96 97 96 83 78 74 82 81 86 88 86 78 79 79 72 60
100 99 98 98 98 97 96 97 96 95 96 96 96 96 90 90 82 73 86 85 87 83 78 74 82 80 67

GFSFLT2_sfc_rhum_120.txt.gz
RH
94 90 94 96 96 97 97 95 96 93 88 91 89 86 83 79 76 74 73 73 73 73 71 69 69 67 66
96 98 98 95 94 98 98 98 94 92 91 90 88 87 83 80 77 75 73 72 72 71 71 71 69 68 70
97 98 97 97 99 99 98 98 95 92 92 92 88 86 84 82 79 75 72 72 70 69 71 70 71 71 80
97 98 99 97 99 98 98 99 98 93 93 91 89 88 86 83 80 77 74 73 69 69 71 71 72 75 82
96 97 99 99 98 95 97 93 96 96 97 98 96 97 93 86 83 80 76 74 70 70 72 71 72 76 81
87 91 86 92 88 95 97 99 98 98 98 98 98 98 95 92 84 77 79 73 71 70 72 72 71 75 82
95 92 92 88 90 97 97 98 93 94 96 98 99 98 91 85 83 82 76 72 72 71 72 73 71 76 80
78 85 87 88 93 93 93 94 99 99 98 99 94 97 88 82 82 78 72 74 72 69 72 73 72 74 75
84 87 90 90 92 98 99 100 99 98 99 99 97 97 89 85 71 75 75 74 71 66 73 73 74 72 61
72 77 85 87 90 96 97 100 100 100 97 98 97 96 98 95 82 80 76 73 72 67 71 71 75 56 52
78 80 88 94 96 96 98 100 100 100 97 95 100 99 100 97 95 80 74 69 64 66 69 71 77 71 65
93 93 92 97 98 100 99 100 99 100 97 99 100 99 99 98 94 85 88 76 70 64 62 62 72 70 71
98 98 99 99 100 100 100 100 100 100 100 100 100 100 100 100 92 85 93 86 84 88 73 64 63 62 74
98 98 100 100 100 100 100 99 99 98 98 100 100 100 100 99 98 89 81 94 90 84 79 72 59 58 68
98 99 99 100 99 100 100 100 100 95 96 97 98 99 99 99 97 84 80 84 85 90 82 78 72 64 60
98 99 99 98 99 99 100 100 100 97 96 96 97 97 97 88 83 82 78 85 87 88 84 86 82 66 58
96 99 99 99 100 96 97 100 100 97 98 96 97 97 97 95 87 84 88 85 85 83 75 76 85 74 63

GFSFLT2_sfc_rhum_123.txt.gz
RH
97 95 95 96 94 94 95 95 95 95 93 95 92 90 91 89 86 80 78 77 76 75 74 73 72 71 70
98 98 98 94 95 96 96 98 97 95 95 95 94 93 92 89 86 82 80 78 76 75 74 73 73 72 71
91 90 97 95 95 95 97 98 98 96 94 94 96 95 93 92 90 86 82 78 77 76 73 72 73 72 71
83 88 91 92 97 97 91 95 96 93 94 92 94 96 94 92 92 89 86 80 78 75 71 72 73 72 71
89 85 83 90 98 90 95 91 90 95 96 95 96 97 97 94 93 93 89 81 81 76 73 71 72 71 71
86 83 80 86 86 91 94 96 96 96 98 97 95 96 96 96 93 93 88 85 85 80 77 73 72 72 72
81 82 84 81 85 92 92 97 95 91 99 98 97 98 94 97 95 95 92 92 88 82 77 73 71 73 72
71 75 78 79 82 88 94 97 95 99 99 99 99 99 99 98 94 96 93 90 86 84 83 75 73 73 74
68 74 77 78 81 91 98 98 97 97 99 100 99 99 99 99 98 93 92 90 85 81 72 70 73 75 77
76 76 74 74 79 85 96 100 93 100 97 99 99 98 99 99 99 98 98 91 88 82 69 73 72 87 79
87 86 86 87 88 89 95 100 100 100 96 99 100 100 100 99 100 100 99 97 94 82 72 69 72 78 93
89 97 98 94 94 97 96 98 99 100 98 100 100 100 100 99 98 100 100 99 99 96 91 65 69 68 69
83 89 98 99 100 100 99 100 100 98 100 100 100 100 100 99 99 99 99 100 100 98 96 93 94 84 96
89 88 98 100 99 100 99 100 99 98 98 100 100 100 100 100 100 99 99 99 99 98 96 94 80 81 88
88 91 96 99 98 100 99 99 99 98 98 98 99 99 99 100 99 99 99 99 96 96 94 95 95 86 83
90 92 95 98 98 99 99 99 98 98 99 98 98 98 99 98 99 99 99 98 98 96 95 97 97 84 82
91 92 95 97 98 98 99 99 98 99 99 98 98 99 98 98 98 94 98 98 95 93 96 97 97 92 82

GFSFLT2_sfc_rhum_126.txt.gz
RH
98 96 95 95 94 94 96 98 97 94 91 92 92 92 93 92 92 88 88 86 81 80 77 76 74 72 71
94 96 96 95 96 97 95 96 97 90 90 88 87 91 94 95 93 94 92 89 86 83 81 76 75 74 73
94 91 92 94 93 93 90 93 90 88 86 86 86 87 91 93 93 95 93 93 91 87 84 80 76 74 74
89 91 94 89 98 97 94 94 93 90 90 90 88 88 88 91 93 95 94 94 90 87 84 82 77 76 75
85 81 83 80 82 88 89 85 79 92 92 96 96 96 93 88 91 97 96 94 91 87 87 85 81 78 75
93 87 77 79 85 89 86 88 90 85 98 93 97 96 95 95 90 95 96 94 92 91 92 89 83 81 79
91 90 88 85 91 89 89 91 91 84 96 94 95 92 90 92 90 92 96 95 94 92 92 89 84 80 79
87 80 75 76 84 86 92 90 86 89 97 98 96 97 96 97 93 92 94 96 94 92 92 91 90 89 88
66 67 72 74 76 87 93 95 93 87 96 99 94 99 99 98 98 90 90 96 95 93 92 91 90 87 84
74 88 80 86 83 91 96 100 99 98 96 100 100 99 99 99 99 98 98 94 91 92 90 87 84 90 92
78 75 80 87 90 91 95 99 100 99 97 100 100 100 100 99 99 99 99 99 99 97 93 95 95 87 95
84 83 87 92 94 98 98 98 98 99 98 100 100 100 100 99 98 99 100 100 99 100 100 99 85 85 70
87 89 89 88 97 99 99 100 100 98 99 100 100 100 100 99 99 99 99 99 100 99 100 99 97 87 96
88 87 86 93 97 100 99 98 99 98 97 98 100 100 99 99 99 99 100 99 100 99 99 97 85 90 93
90 92 93 92 92 98 99 99 98 97 95 98 98 99 99 99 99 99 99 99 99 99 96 96 93 89 90
93 95 96 96 95 94 99 99 98 98 99 99 100 99 99 97 98 99 99 99 99 99 96 97 95 90 91
94 95 95 94 94 95 96 98 98 99 99 99 99 98 99 98 98 96 99 99 98 98 98 98 98 97 90

GFSFLT2_sfc_rhum_129.txt.gz
RH
96 92 92 92 91 92 93 94 96 86 80 79 81 84 85 87 90 90 92 91 90 87 86 83 82 81 77
94 94 90 90 91 93 94 95 95 85 81 83 84 84 83 80 85 88 90 93 92 91 91 88 85 81 80
95 93 94 92 92 93 94 94 91 88 83 80 81 81 84 85 86 88 91 91 92 94 93 92 88 85 78
94 94 92 90 95 93 92 93 93 73 71 74 81 86 86 84 86 90 90 91 93 95 95 94 93 88 83
95 94 95 93 94 94 93 92 89 87 84 94 87 91 95 86 89 91 90 88 91 94 95 94 92 90 86
95 96 94 94 93 95 84 89 91 88 95 89 94 90 86 92 88 88 88 88 90 96 96 94 94 92 88
94 95 94 91 93 92 92 94 92 85 89 92 86 91 88 88 85 88 89 90 91 92 95 96 93 90 89
85 77 72 68 84 88 93 95 93 90 92 95 89 93 89 93 84 86 85 88 88 91 93 96 93 92 90
66 66 73 75 78 87 94 98 97 91 92 96 95 98 96 90 95 87 87 86 89 89 94 94 94 91 92
81 75 66 68 75 86 97 99 98 98 96 100 95 100 100 99 96 95 97 91 88 94 94 92 92 97 98
93 83 74 75 84 86 89 99 98 98 96 100 100 100 100 100 98 99 99 98 99 98 93 92 95 96 99
83 84 84 86 86 89 92 98 98 99 98 100 100 100 100 99 98 97 99 99 99 99 99 98 96 97 94
85 85 88 87 89 93 95 96 100 99 99 100 99 99 100 99 99 98 99 99 100 100 100 100 100 99 99
90 90 90 92 94 92 96 98 98 95 97 98 99 99 99 99 99 97 99 99 100 99 100 98 88 92 98
93 94 93 93 92 91 95 98 99 97 96 96 98 99 99 100 99 99 99 99 100 99 98 97 90 92 92
92 94 95 95 93 92 94 96 98 97 98 98 98 98 99 97 98 99 99 99 99 99 98 97 95 92 90
94 94 95 95 92 94 94 96 95 97 97 99 98 98 98 98 97 96 99 98 99 98 98 99 97 94 94

GFSFLT2_sfc_rhum_132.txt.gz
RH
99 98 95 94 87 86 88 90 92 81 77 77 78 79 79 79 80 80 79 80 82 85 86 84 84 88 87
96 96 92 84 84 85 91 88 94 84 73 65 64 63 69 79 82 83 84 81 83 83 86 87 85 86 90
93 91 92 90 91 92 89 92 89 79 70 67 63 68 72 70 74 77 82 81 80 84 87 89 90 91 93
93 94 95 92 94 95 92 93 92 77 75 72 75 74 76 77 77 81 84 84 83 82 85 89 93 95 91
93 95 94 93 94 96 96 89 85 85 90 89 85 88 89 79 80 81 83 81 82 83 84 86 90 94 92
97 96 94 96 95 96 88 85 92 87 92 89 92 88 85 85 78 78 80 81 83 84 86 87 90 95 93
94 94 96 92 78 84 86 95 95 87 94 93 92 93 87 84 82 82 80 82 84 85 86 86 89 92 94
87 87 73 76 82 84 92 93 91 91 94 95 90 95 93 93 85 82 85 83 83 83 83 84 89 91 94
70 70 67 65 69 86 97 98 90 87 85 98 96 95 85 91 95 82 82 82 84 86 92 89 91 96 96
86 84 79 70 66 80 90 98 98 97 96 99 97 100 97 99 96 93 95 86 90 92 96 96 94 96 98
94 92 90 82 77 74 83 94 98 98 91 99 99 98 100 99 99 97 99 98 96 97 97 92 92 96 99
93 82 83 80 92 89 91 94 96 99 97 100 99 99 99 98 98 98 97 99 99 99 99 98 96 96 89
87 89 92 91 94 93 91 94 98 98 99 100 99 99 99 98 98 96 97 99 98 99 99 99 99 100 99
88 94 95 96 95 93 94 93 96 94 93 96 98 99 98 98 96 97 97 99 99 99 99 98 97 98 96
94 92 96 96 94 92 93 94 97 96 94 94 96 98 98 99 97 99 99 100 99 99 99 98 94 91 90
93 94 96 96 96 92 94 94 96 94 95 94 99 98 97 96 90 97 99 100 99 99 99 98 96 89 91
97 96 96 94 93 95 90 90 93 93 95 97 99 98 99 99 96 82 100 99 99 98 98 99 98 96 94

GFSFLT2_sfc_rhum_138.txt.gz
RH
98 97 94 92 89 91 88 90 90 76 72 71 66 66 66 68 70 71 70 70 69 70 71 70 70 68 69
97 97 96 92 92 90 84 81 88 75 68 68 68 68 66 67 66 65 67 69 71 73 72 71 70 71 73
96 96 96 86 88 85 83 86 77 72 70 72 69 68 69 69 70 71 72 74 76 73 71 72 72 74 75
89 93 94 91 92 92 91 89 86 73 75 75 74 74 76 75 74 77 79 75 74 73 73 75 78 77 77
92 91 96 95 96 94 91 85 81 91 93 85 87 86 88 81 80 79 72 75 76 78 75 73 72 74 76
96 96 94 95 94 92 94 94 95 93 89 85 91 86 89 93 78 76 77 80 79 76 77 78 75 73 74
93 95 95 92 92 90 86 91 96 88 95 94 92 90 91 86 79 75 76 79 73 75 76 77 78 80 82
91 90 90 89 89 86 90 95 94 90 93 96 93 95 82 86 78 77 80 75 75 79 79 79 88 89 90
68 68 69 70 70 87 95 95 93 89 92 99 96 89 83 90 95 80 70 70 77 78 81 82 87 88 92
82 82 81 82 67 85 96 100 98 98 97 96 98 98 97 97 96 93 93 81 74 78 86 82 85 93 96
91 90 88 90 90 91 94 100 97 96 87 92 99 96 99 96 97 95 95 90 89 90 89 91 84 84 97
89 92 95 92 94 96 95 97 97 96 91 96 99 99 98 93 94 95 88 86 92 94 92 88 90 88 83
96 97 97 97 96 97 95 94 94 91 90 94 99 99 99 97 96 92 91 91 90 99 95 97 97 96 96
98 98 98 98 99 99 100 99 95 97 89 93 96 99 97 97 97 94 91 97 90 90 91 91 94 93 95
98 99 99 99 98 98 99 97 94 94 92 89 90 95 96 98 98 94 95 95 92 97 96 93 91 90 88
84 99 100 100 98 98 98 100 98 92 95 93 94 92 96 90 91 96 96 92 90 95 97 98 98 89 87
84 99 99 99 97 98 98 98 96 96 95 96 95 97 98 99 92 81 100 96 94 89 98 100 96 93 89

GFSFLT2_sfc_rhum_141.txt.gz
RH
96 94 91 88 87 86 86 85 87 83 77 73 69 67 67 67 67 66 65 65 68 69 69 68 67 66 66
95 96 94 87 88 86 81 77 80 73 69 69 68 66 67 68 68 69 70 70 71 72 72 69 70 71 70
96 92 94 86 83 71 67 71 64 69 67 70 71 70 72 72 72 73 75 76 74 74 76 75 73 73 72
89 88 89 84 85 78 74 72 72 64 69 67 68 69 69 71 71 75 78 74 72 73 71 75 76 74 73
81 78 79 77 78 76 76 75 68 77 76 69 70 70 69 70 74 77 74 74 75 78 73 71 75 75 74
80 75 77 79 76 77 77 77 80 77 78 72 69 72 69 70 73 74 75 76 80 74 72 72 76 76 77
74 76 75 76 78 78 76 79 78 68 72 77 70 76 68 58 69 74 74 79 72 72 75 75 79 79 81
70 71 72 71 74 75 76 74 72 71 69 83 75 78 69 69 69 76 74 69 71 72 72 76 78 81 81
68 68 68 66 67 69 76 82 78 71 72 92 76 81 78 74 74 78 71 70 76 73 74 77 81 81 82
62 66 71 71 71 72 81 93 91 86 86 84 83 84 86 76 79 71 70 72 73 74 75 80 84 84 87
70 68 69 66 69 72 76 89 93 92 77 86 94 91 92 90 82 80 80 78 75 76 76 81 80 81 86
75 73 74 75 78 81 81 82 82 87 80 88 97 97 96 94 88 81 84 82 82 83 86 86 91 89 84
80 80 79 85 88 86 86 86 88 88 86 94 96 95 96 96 94 88 90 83 85 93 85 84 84 86 90
81 81 85 87 86 86 93 90 89 84 87 90 89 92 94 90 93 92 89 95 87 84 87 88 76 73 77
84 85 86 86 86 86 91 91 91 90 88 83 84 87 92 97 97 87 86 89 89 88 89 91 84 75 71
79 84 91 92 93 90 89 91 93 89 90 87 89 90 81 80 84 90 88 85 86 89 90 95 89 78 74
85 84 91 94 93 92 90 90 88 88 89 89 92 94 93 91 71 72 96 90 86 84 80 86 92 86 76

GFSFLT2_sfc_rhum_144.txt.gz
RH
95 91 89 87 84 79 76 79 83 81 79 74 76 78 73 69 67 68 68 68 67 69 68 68 67 66 66
93 94 87 78 81 78 75 73 78 64 70 69 69 69 69 69 70 71 71 72 73 73 70 69 69 68 68
94 92 93 83 82 78 77 76 55 58 61 70 68 65 66 66 69 72 73 75 75 72 72 71 70 71 69
73 82 84 82 82 78 67 62 61 54 64 64 66 66 68 67 69 72 77 76 74 75 73 76 75 71 71
70 66 72 71 69 68 74 65 57 66 69 58 54 56 58 58 65 68 71 73 72 73 80 74 72 70 73
65 61 66 66 62 67 69 67 67 65 62 58 55 62 58 59 60 66 70 71 79 75 73 72 74 73 75
56 57 57 61 63 67 66 69 67 56 62 63 55 64 56 46 61 68 73 76 70 70 70 72 72 75 76
55 56 57 58 62 64 68 65 62 60 61 78 62 68 58 55 62 73 78 70 70 72 69 71 72 76 79
67 68 68 66 70 62 70 77 72 61 66 80 70 75 70 64 63 65 66 68 70 73 71 72 74 78 78
52 58 59 60 62 64 72 87 85 81 84 86 81 83 86 72 71 64 63 67 68 69 70 74 77 77 83
57 55 57 56 62 63 66 80 90 87 70 82 90 88 89 88 80 78 73 73 73 72 72 78 79 83 90
64 63 66 70 73 75 74 76 76 82 75 83 94 92 94 92 87 80 82 81 82 81 87 79 79 78 78
68 73 74 78 85 83 84 85 92 87 83 99 94 95 93 94 92 88 89 82 81 86 83 81 83 81 83
72 75 79 83 82 81 86 84 88 86 99 99 98 91 92 89 90 88 86 92 84 86 83 83 76 76 75
82 81 81 80 80 81 84 85 86 85 84 84 95 93 92 93 94 87 82 80 87 87 89 84 78 77 71
79 83 85 85 84 83 83 86 86 82 85 83 87 87 83 76 85 88 84 85 82 82 86 93 85 78 71
83 84 83 85 88 86 85 85 83 80 84 83 87 90 93 90 69 68 90 88 88 85 79 82 90 85 78